{"data":{"norad_id":53243,"epoch":"2026-05-24T22:01:44.303232Z","epoch_age_seconds":85222,"freshness":"FRESH","line1":"1 53243U 22086B   26144.91787388 -.00000171  00000+0  73472-5 0  9990","line2":"2 53243  53.2126 221.6119 0001087  86.9809 273.1308 15.08833993212778","mean_motion":15.08833993,"eccentricity":0.0001087,"inclination_deg":53.2126,"raan_deg":221.6119,"arg_perigee_deg":86.9809,"mean_anomaly_deg":273.1308,"bstar":7.3472e-6,"rev_number":21277,"period_min":95.437934635663,"perigee_km":539.00977442676,"apogee_km":540.51372561501,"semimajor_km":6917.8987500209,"source":"CELESTRAK","updated_at":"2026-05-25T13:38:17.359751Z"}}